TimePDT,TemperatureF,Dew PointF,Humidity,Sea Level PressureIn,VisibilityMPH,Wind Direction,Wind SpeedMPH,Gust SpeedMPH,PrecipitationIn,Events,Conditions,WindDirDegrees,DateUTC
12:03 AM,62.6,55.4,77,30.07,8.0,Calm,Calm,-,N/A,,Mostly Cloudy,0,2013-05-11 07:03:00
12:39 AM,62.6,57.2,82,30.07,7.0,Calm,Calm,-,N/A,,Overcast,0,2013-05-11 07:39:00
12:55 AM,64.0,55.9,75,30.09,7.0,Calm,Calm,-,N/A,,Overcast,0,2013-05-11 07:55:00
1:55 AM,64.0,57.0,78,30.08,7.0,NNE,3.5,-,N/A,,Overcast,30,2013-05-11 08:55:00
2:55 AM,64.0,57.0,78,30.08,6.0,North,3.5,-,N/A,,Haze,360,2013-05-11 09:55:00
3:55 AM,63.0,55.9,78,30.08,5.0,Calm,Calm,-,N/A,,Haze,0,2013-05-11 10:55:00
4:55 AM,63.0,55.9,78,30.07,4.0,Calm,Calm,-,N/A,,Haze,0,2013-05-11 11:55:00
5:55 AM,62.1,55.9,80,30.07,3.0,Calm,Calm,-,N/A,,Haze,0,2013-05-11 12:55:00
6:09 AM,60.8,55.4,82,30.05,1.8,Calm,Calm,-,N/A,,Haze,0,2013-05-11 13:09:00
6:19 AM,60.8,55.4,82,30.05,1.5,Calm,Calm,-,N/A,,Haze,0,2013-05-11 13:19:00
6:52 AM,60.8,55.4,82,30.06,0.8,Calm,Calm,-,N/A,,Haze,0,2013-05-11 13:52:00
6:55 AM,61.0,55.9,83,30.08,1.0,Calm,Calm,-,N/A,,Haze,0,2013-05-11 13:55:00
7:55 AM,62.1,55.9,80,30.09,2.0,Calm,Calm,-,N/A,,Haze,0,2013-05-11 14:55:00
8:50 AM,64.4,55.4,73,30.07,3.0,Calm,Calm,-,N/A,,Haze,0,2013-05-11 15:50:00
8:55 AM,64.9,55.9,73,30.09,3.0,Calm,Calm,-,N/A,,Haze,0,2013-05-11 15:55:00
9:55 AM,72.0,57.9,61,30.08,7.0,SSW,4.6,-,N/A,,Clear,210,2013-05-11 16:55:00
10:55 AM,73.9,59.0,59,30.08,7.0,SW,5.8,-,N/A,,Clear,220,2013-05-11 17:55:00
11:55 AM,75.9,59.0,56,30.09,6.0,SW,9.2,-,N/A,,Haze,220,2013-05-11 18:55:00
12:55 PM,73.9,59.0,59,30.08,7.0,SW,9.2,-,N/A,,Clear,220,2013-05-11 19:55:00
1:55 PM,77.0,59.0,54,30.07,8.0,SW,9.2,-,N/A,,Clear,230,2013-05-11 20:55:00
2:55 PM,78.1,59.0,52,30.06,8.0,West,8.1,-,N/A,,Clear,260,2013-05-11 21:55:00
3:55 PM,75.0,57.9,55,30.05,8.0,West,9.2,-,N/A,,Clear,280,2013-05-11 22:55:00
4:55 PM,72.0,57.9,61,30.04,9.0,WSW,9.2,-,N/A,,Clear,250,2013-05-11 23:55:00
5:55 PM,69.1,57.0,65,30.04,8.0,West,10.4,-,N/A,,Clear,270,2013-05-12 00:55:00
7:55 PM,64.0,55.9,75,30.04,6.0,WNW,5.8,-,N/A,,Haze,290,2013-05-12 02:55:00
8:55 PM,64.0,55.9,75,30.04,6.0,WNW,5.8,-,N/A,,Haze,300,2013-05-12 03:55:00
9:55 PM,64.0,55.9,75,30.04,7.0,WNW,5.8,-,N/A,,Clear,290,2013-05-12 04:55:00
10:55 PM,64.0,55.9,75,30.05,7.0,WNW,3.5,-,N/A,,Clear,300,2013-05-12 05:55:00
11:55 PM,64.0,55.9,75,30.05,7.0,Calm,Calm,-,N/A,,Clear,0,2013-05-12 06:55:00